Terminal Aerodrome Forecast
Issued by NWS Wakefield, VA

Home | Current Version | Previous Version | Text Only | Print | Product List | Glossary On
Versions: 1 2 3 4 5 6 7 8 9 10 11 12 13 14 15 16 17 18 19 20 21 22 23 24 25
710
FTUS41 KAKQ 211734
TAFRIC
TAF
KRIC 211734Z 2118/2218 19004KT 3SM BR OVC003
      TEMPO 2118/2121 1SM BR OVC002
     FM220200 VRB03KT 3SM -SHRA OVC003
     FM220700 02003KT 1SM -DZ BR OVC003
     FM221500 00000KT 2SM BR BKN006=

USA.gov is the U.S. government's official web portal to all federal, state and local government web resources and services.